Tulsa International Airport Airport (TUL)

 

Airport Diagram
Current Weather/Forecast (MVFR Conditions)
METAR KTUL 241453Z 16013G24KT 10SM OVC025 11/06 A2993 RMK AO2 PK WND 15027/1422 SLP135 T01110056 56009
TAF KTUL 241130Z 2412/2512 16015G23KT P6SM OVC025 WS020/19040KT FM241500 16015G25KT 5SM -SHRA OVC015 FM241800 17015G25KT P6SM VCSH OVC012 TEMPO 2418/2420 4SM -RA OVC009 FM250000 17015G23KT 6SM -SHRA BKN012 TEMPO 2502/2505 3SM TSRA BKN009CB FM250600 25011G18KT P6SM BKN015 FM251000 29012KT P6SM BKN030

All Charts
General
Chart Name Download
AIRPORT DIAGRAM
TAKEOFF MINIMUMS
ALTERNATE MINIMUMS
RADAR MINIMUMS

Departures
Chart Name Download
TULSA EIGHT

Arrivals
Chart Name Download
VINTA TWO

Approaches
Chart Name Download
ILS OR LOC RWY 18L
ILS OR LOC RWY 18R
ILS OR LOC RWY 36R
ILS RWY 36R (SA CAT I)
ILS RWY 36R (CAT II)
RNAV (GPS) RWY 08
RNAV (GPS) RWY 18L
RNAV (GPS) RWY 18R
RNAV (GPS) RWY 26
RNAV (GPS) RWY 36L
RNAV (GPS) RWY 36R
VOR/DME RWY 08
HI-VOR/DME OR TACAN RWY 26
VOR OR TACAN RWY 26


Inbound Traffic (Arrivals)

No inbound traffic.


Outbound Traffic (Departures)

No outbound traffic.